Starlink 32163

operational
NORAD ID: 60262 Int'l Des: 2024-131 Owner: SPXS Country: US Constellation: starlink
LEOCIRCULAR

Starlink 32163について

説明を読み込み中...

リアルタイム位置

3D地球を読み込み中...

次回通過

高度履歴

Altitude vs Time

uPlot chart will show altitude changes over time

軌道要素

1 60262U 24131H 25352.59449800 -.00000353 00000-0 20387-6 0 9991
2 60262 53.1598 69.0342 0001120 92.1652 267.9477 15.30190424 79302
Epoch: Dec 18, 2025 • Age: 26 hours

現在のステータス

高度 475.3 km
速度 7.63 km/s
衛星直下点 18.83°N, 99.61°W
打ち上げ日 Jul 27, 2024
運用期間 1.3 years
タイプ internet

技術仕様

分類 Payload
質量 730.00 kg
乾燥質量 700.00 kg
総質量 730.00 kg
長さ 0.30 m
直径 4.10 m
スパン 29.00 m
形状 Box + pan
製造者 SPXS
バスタイプ Starlink V2M
フェーズステータス In Orbit
所有者/国 SPXS/US

大規模コンステレーション

Loading constellations...